SCP
0 0 0 0 0 0 0 0 0 0 0 0 0 0 0 0 0 0 0 0 0 0 0 0 0 0 0 0 0 0 0 0 0 0 0 0 0 0 0 0 0 0 0
0 0 0 0 0 0 0 0 0 0 0 0 0 0 0 0 0 0 0 0 0 0 0 0 0 0 0 0 0 0 0 0 0 0 0 0 0 0 0 0 0 0 0
0 0 0 0 0 0 0 0 0 0 0 0 0 0 0 0 0 0 0 0 0 0 0 0 0 0 0 0 0 0 0 0 0 0 0 0 0 0 0 0 0 0 0
0 0 0 0 0 0 0 0 0 0 0 0 0 0 0 0 0 0 0 0 0 0 0 0 0 0 0 0 0 0 0 0 0 0 0 0 0 0 0 0 0 0 0
0 0 0 0 0 0 0 0 0 0 0 0 0 0 0 0 0 0 0 0 0 0 0 0 0 0 0 0 0 0 0 0 0 0 0 0 0 0 0 0 0 0 0
0 0 0 0 0 0 0 0 0 0 0 0 0 0 0 0 0 0 0 0 0 0 0 0 0 0 0 0 0 0 0 0 0 0 0 0 0 0 0 0 0 0 0
0 0 0 0 0 0 0 0 0 0 0 0 0 0 0 0 0 0 0 0 0 0 0 0 0 0 0 0 0 0 0 0 0 0 0 0 0 0 0 0 0 0 0
0 0 0 0 0 0 0 0 0 0 0 0 0 0 0 0 0 0 0 0 0 0 0 0 0 0 0 0 0 0 0 0 0 0 0 0 0 0 0 0 0 0 0
0 0 0 0 0 0 0 0 0 0 0 0 0 0 0 0 0 0 0 0 0 0 0 0 0 0 0 0 0 0 0 0 0 0 0 0 0 0 0 0 0 0 0
0 0 0 0 0 0 0 0 0 0 0 0 0 0 0 0 0 0 0 0 0 0 0 0 0 0 0 0 0 0 0 0 0 0 0 0 0 0 0 0 0 0 0
0 0 0 0 0 0 0 0 0 0 0 0 0 0 0 0 0 0 0 0 0 0 0 0 0 0 0 0 0 0 0 0 0 0 0 0 0 0 0 0 0 0 0
0 0 0 0 0 0 0 0 0 0 0 0 0 0 0 0 0 0 0 0 0 0 0 0 0 0 0 0 0 0 0 0 0 0 0 0 0 0 0 0 0 0 0
0 0 0 0 0 0 0 0 0 0 0 0 0 0 0 0 0 0 0 0 0 0 0 0 0 0 0 0 0 0 0 0 0 0 0 0 0 0 0 0 0 0 0
0 0 0 0 0 0 0 0 0 0 0 0 0 0 0 0 0 0 0 0 0 0 0 0 0 0 0 0 0 0 0 0 0 0 0 0 0 0 0 0 0 0 0
0 0 0 0 0 0 0 0 0 0 0 0 0 0 0 0 0 0 0 0 0 0 0 0 0 0 0 0 0 0 0 0 0 0 0 0 0 0 0 0 0 0 0
0 0 0 0 0 0 0 0 0 0 0 0 0 0 0 0 0 0 0 0 0 0 0 0 0 0 0 0 0 0 0 0 0 0 0 0 0 0 0 0 0 0 0
0 0 0 0 0 0 0 0 0 0 0 0 0 0 0 0 0 0 0 0 0 0 0 0 0 0 0 0 0 0 0 0 0 0 0 0 0 0 0 0 0 0 0
0 0 0 0 0 0 0 0 0 0 0 0 0 0 0 0 0 0 0 0 0 0 0 0 0 0 0 0 0 0 0 0 0 0 0 0 0 0 0 0 0 0 0
0 0 0 0 0 0 0 0 0 0 0 0 0 0 0 0 0 0 0 0 0 0 0 0 0 0 0 0 0 0 0 0 0 0 0 0 0 0 0 0 0 0 0
0 0 0 0 0 0 0 0 0 0 0 0 0 0 0 0 0 0 0 0 0 0 0 0 0 0 0 0 0 0 0 0 0 0 0 0 0 0 0 0 0 0 0
0 0 0 0 0 0 0 0 0 0 0 0 0 0 0 0 0 0 0 0 0 0 0 0 0 0 0 0 0 0 0 0 0 0 0 0 0 0 0 0 0 0 0
0 0 0 0 0 0 0 0 0 0 0 0 0 0 0 0 0 0 0 0 0 0 0 0 0 0 0 0 0 0 0 0 0 0 0 0 0 0 0 0 0 0 0
0 0 0 0 0 0 0 0 0 0 0 0 0 0 0 0 0 0 0 0 0 0 0 0 0 0 0 0 0 0 0 0 0 0 0 0 0 0 0 0 0 0 0
0 0 0 0 0 0 0 0 0 0 0 0 0 0 0 0 0 0 0 0 0 0 0 0 0 0 0 0 0 0 0 0 0 0 0 0 0 0 0 0 0 0 0
0 0 0 0 0 0 0 0 0 0 0 0 0 0 0 0 0 0 0 0 0 0 0 0 0 0 0 0 0 0 0 0 0 0 0 0 0 0 0 0 0 0 0
0 0 0 0 0 0 0 0 0 0 0 0 0 0 0 0 0 0 0 0 0 0 0 0 0 0 0 0 0 0 0 0 0 0 0 0 0 0 0 0 0 0 0
Wind_Speed
2 2 3 3 4 6 7 7 8 8 8 9 9 9 10 10 10 11 10 10 10 9 9 10 10 11 11 11 12 12 11 11 11 11 11 11 11 11 11 9 7 8 11
2 3 4 3 5 7 7 8 8 8 8 9 9 10 10 10 10 10 10 10 10 10 10 10 10 10 11 11 11 11 11 11 11 10 9 10 11 11 11 10 9 8 9
3 4 5 3 5 7 7 8 8 8 8 9 9 10 10 10 10 10 10 10 10 10 10 10 10 10 11 11 10 10 10 10 10 8 4 6 8 10 10 9 9 9 9
3 4 4 5 6 7 8 8 8 8 8 9 9 9 9 10 10 10 10 10 10 10 10 11 10 10 10 10 10 9 9 9 8 4 4 6 6 9 8 8 8 8 7
3 3 5 5 6 8 8 8 8 8 8 9 9 8 9 9 9 9 10 10 10 10 10 10 10 10 10 9 9 8 8 8 5 3 5 5 5 8 7 7 7 7 7
3 3 6 6 6 7 8 8 8 8 8 8 8 8 9 9 9 9 9 9 9 9 9 9 9 9 10 9 9 8 8 6 2 4 5 4 5 7 6 6 6 6 6
3 3 5 6 6 6 7 8 8 8 8 8 8 8 8 9 9 9 9 9 9 9 9 9 9 9 9 9 9 9 8 5 2 4 3 4 5 6 5 5 5 5 5
4 3 4 6 6 6 7 7 8 8 8 8 8 8 8 8 9 9 8 8 8 8 9 9 9 9 9 8 8 8 7 4 3 3 3 3 5 4 3 3 4 4 4
4 3 3 4 5 6 7 7 7 7 7 8 8 8 8 8 8 8 8 7 7 8 8 8 8 8 8 8 8 7 6 4 2 2 3 3 5 3 2 2 2 3 3
4 4 3 3 3 4 5 8 8 8 8 9 9 8 8 8 8 8 7 7 7 8 8 8 8 8 7 8 7 6 4 2 2 2 2 4 5 3 3 3 2 2 2
3 3 3 3 3 3 4 6 7 8 8 7 7 8 5 4 5 5 8 8 7 7 7 7 7 7 6 6 6 5 1 1 2 2 2 5 4 3 3 3 2 2 2
2 2 2 3 3 3 3 4 4 4 4 4 4 4 3 3 3 4 7 8 8 7 6 6 6 4 2 2 3 1 1 2 2 1 3 5 4 3 3 3 3 3 2
1 2 2 2 2 3 2 3 2 2 2 3 4 4 3 2 2 2 2 3 3 3 3 3 2 2 2 2 1 1 2 2 1 1 3 5 4 3 3 3 3 3 3
2 2 2 2 2 3 3 2 2 2 2 2 3 3 2 1 2 2 1 2 1 1 2 2 1 2 2 2 2 2 2 1 1 1 3 5 5 4 4 3 3 3 3
2 2 2 2 2 3 2 2 2 2 2 3 2 2 2 1 1 1 1 1 1 1 1 1 1 1 2 2 2 2 2 2 2 2 1 4 4 5 4 4 4 3 4
2 2 2 2 2 3 3 2 2 2 2 2 3 3 2 2 1 1 1 1 1 1 1 1 2 1 1 1 2 2 2 2 1 1 1 2 3 4 5 5 4 4 4
3 3 2 3 3 3 3 2 2 2 2 2 2 3 3 2 2 1 1 1 2 1 1 1 1 1 1 1 2 2 2 2 2 2 2 1 1 3 4 5 5 5 5
3 3 3 2 3 3 3 2 2 2 2 2 2 2 3 2 2 1 1 1 1 1 1 1 1 1 1 1 2 2 2 2 2 2 1 1 2 2 2 5 6 6 6
3 3 3 3 3 3 3 2 2 2 2 2 2 2 2 2 1 1 1 1 2 1 1 1 2 2 2 2 2 2 2 2 2 2 2 2 2 2 2 3 4 6 7
3 3 4 4 3 3 3 2 2 2 2 2 2 2 2 2 1 1 1 2 1 1 1 1 1 2 2 2 2 3 2 2 2 2 2 1 1 2 2 3 2 3 5
3 4 4 4 4 3 3 2 2 1 1 1 1 2 2 2 2 2 1 1 1 1 1 2 2 2 2 2 2 2 2 2 2 1 1 1 1 2 2 3 3 3 3
4 4 4 4 4 4 3 2 1 1 1 1 1 1 1 1 1 1 1 1 1 1 1 1 1 1 1 2 2 3 2 2 1 1 1 2 2 2 2 3 4 4 4
4 4 4 4 4 4 3 2 2 2 1 1 1 0 0 0 0 0 0 0 0 1 1 1 1 1 1 1 2 3 3 3 2 2 2 2 2 2 3 3 3 4 5
5 4 4 4 4 4 4 4 4 2 2 2 1 1 1 1 1 1 1 1 1 1 2 2 2 2 2 2 1 2 3 3 3 3 2 2 3 4 4 4 4 4 5
4 4 4 5 5 5 5 5 4 3 2 1 1 2 2 1 2 2 2 1 1 1 2 2 2 2 2 3 2 2 3 3 5 4 5 4 4 4 4 5 4 4 4
4 4 4 5 5 5 5 4 4 4 3 2 2 3 2 2 2 2 2 2 2 2 2 3 3 4 4 4 3 3 3 3 4 4 6 6 6 4 5 4 4 4 4
Wind_Direction
146 149 116 105 105 106 101 95 96 98 98 97 97 92 92 92 90 87 85 84 85 85 86 88 85 86 85 82 80 78 77 76 74 75 76 75 74 74 75 70 69 78 72
152 148 112 109 109 111 105 100 99 96 92 92 93 91 90 91 89 87 85 87 86 83 83 82 82 81 83 83 81 80 78 74 72 72 76 81 74 73 72 66 52 64 69
138 144 141 113 113 115 109 103 97 95 93 91 90 89 88 90 89 86 84 83 85 84 82 81 81 80 80 79 79 79 77 74 72 69 77 84 80 72 70 67 65 66 68
132 144 136 107 111 112 108 103 99 97 96 95 92 91 89 87 87 86 82 81 83 82 80 80 83 81 79 77 76 76 77 76 71 61 78 73 78 74 69 69 67 66 65
119 130 111 98 105 108 109 108 104 99 95 94 93 93 91 89 86 84 80 79 81 80 80 80 82 81 77 74 74 74 76 75 74 69 70 72 74 71 66 66 66 69 65
103 112 106 92 101 105 109 110 108 102 98 95 93 93 92 91 89 84 81 80 80 81 81 79 80 80 78 73 71 70 71 71 93 73 69 69 72 70 60 62 65 66 61
95 91 103 89 94 101 109 109 105 103 100 99 94 91 90 89 89 83 79 78 78 78 79 78 78 79 79 76 73 69 62 46 48 72 73 72 66 58 52 59 66 64 56
92 90 98 87 84 88 95 101 101 101 99 97 92 88 86 88 87 84 79 77 77 77 77 78 77 77 77 78 78 73 63 31 52 63 68 67 61 51 42 51 59 63 56
84 85 91 106 102 91 90 90 92 93 93 92 90 88 85 82 82 80 76 74 75 75 75 75 74 72 74 74 74 71 59 23 16 49 50 52 51 33 24 26 46 52 49
75 77 80 94 98 105 102 85 85 83 82 83 82 79 79 83 82 75 74 69 70 74 75 72 71 67 68 70 70 65 50 341 29 37 35 51 36 22 26 30 33 36 40
72 70 82 91 93 94 98 94 90 85 80 83 83 77 82 92 88 79 63 61 64 69 70 69 69 67 65 73 67 58 28 356 30 21 27 36 21 16 15 17 14 9 14
96 78 70 90 95 96 95 102 97 93 93 91 92 90 88 83 72 70 69 57 58 62 70 65 66 74 59 70 76 50 11 14 10 21 36 26 13 9 10 12 12 358 8
121 92 72 86 94 95 94 94 90 93 91 87 83 80 87 88 86 75 79 72 62 56 63 75 79 50 38 36 14 12 13 0 353 9 33 23 9 4 10 15 17 13 11
135 127 118 104 98 94 98 95 93 97 97 86 80 81 88 88 77 70 62 61 52 39 31 23 31 39 27 20 8 1 3 350 340 2 37 31 17 8 3 1 5 6 4
152 140 136 117 114 115 111 97 93 96 93 91 80 73 72 90 88 80 67 57 48 40 34 17 21 33 23 8 1 353 352 349 343 344 32 41 20 7 359 353 351 353 348
174 161 143 131 131 128 121 114 105 94 90 88 84 74 67 63 73 85 77 55 42 28 19 4 16 6 8 352 342 338 337 335 333 328 335 37 40 19 360 354 348 344 338
186 174 155 146 135 132 122 114 103 94 100 95 87 78 70 62 61 63 58 46 30 17 17 1 20 356 360 342 334 335 333 330 324 328 331 330 5 38 13 357 353 348 340
187 176 161 145 142 139 131 125 107 101 98 92 88 82 74 65 51 54 55 40 23 9 6 4 1 353 346 335 333 334 325 315 309 317 318 326 334 343 14 12 356 348 344
187 175 166 159 153 147 137 127 113 104 93 89 86 79 72 67 49 42 37 38 27 23 17 7 1 343 331 332 326 317 310 304 303 296 299 320 337 341 340 13 9 1 353
180 175 167 159 155 145 133 125 114 105 99 94 87 73 71 66 51 42 50 44 35 25 16 6 5 348 325 322 317 307 294 288 280 282 290 303 334 336 340 345 341 2 357
172 173 169 163 155 148 144 149 144 142 138 118 92 83 76 69 62 50 45 45 23 12 7 358 355 337 345 335 308 302 277 256 259 257 275 280 311 325 331 338 335 333 336
179 178 174 173 167 163 158 149 153 163 169 120 101 95 76 72 64 56 52 27 358 327 355 356 330 323 335 336 315 297 284 236 204 267 283 287 298 312 323 331 330 326 322
188 189 184 178 173 168 155 137 131 133 144 172 172 170 305 274 149 103 228 272 282 284 285 277 278 292 297 306 311 304 295 295 316 253 266 272 291 301 307 313 316 318 319
195 189 190 184 179 172 168 173 176 184 198 206 209 217 219 232 228 218 226 234 240 256 265 267 275 285 277 277 286 282 291 304 288 292 258 268 291 295 297 304 306 307 307
190 188 190 184 183 184 187 189 194 201 209 197 200 209 217 220 231 222 226 228 238 248 258 263 269 268 260 265 270 276 272 270 263 269 280 285 286 283 293 297 296 300 305
183 183 188 187 190 190 193 197 203 202 201 202 213 215 217 217 229 228 231 234 240 246 255 262 259 257 255 256 260 262 265 266 268 268 277 287 288 290 292 286 286 292 299